Content
SEND FEEDBACK

Daily
Averages
Monthly
Summary
United Kingdom

KINGS LYNN, ENGLAND


Home > Europe > United Kingdom > England
Elevation: 255 feet     Latitude: 52 47N     Longitude: 000 44E

WEATHER
 
SELECT A DAY
Number of Records: 160,539;   Date Range: 8/10/96 - 9/16/14
 
SHARE

PRINT THIS DATA

[ ← Previous Day ]
WEATHER ALMANAC - DECEMBER 17, 2013
[ Next Day → ]
[ °C ]   °F
Weather ElementAverageHighLow
Temperature39.8 °F44.4 °F (12:58 pm)34.5 °F (5:58 pm)
Dewpoint39.5 °F42.8 °F (12:16 am)34.5 °F (5:58 pm)
Humidity98.8 %100 % (12:16 am)81 % (1:58 pm)
Barometer30.11 in30.27 in (9:58 am)29.98 in (11:35 pm)
Wind Speed3.6 mph6.9 mph (12:16 am)
Weather ElementAverage
Visibility5.8 mi
Wind DirectionESE (123.3 °)

Weather ElementTotal
Precipitation0.20 in
Heating Degree Days25.6 (Base 65)
Averaged from 70 records on December 17, 2013
WEATHER CONDITIONS BREAKOUT
WIND DIRECTION BREAKOUT
WEATHER BY HOUR - DECEMBER 17, 2013
[ °C ]   °F
Local TimeTemperatureDewpointHumidityBarometerVisibilityWind DirectionWind SpeedGust SpeedPrecipitationEventsConditions
12:16 AM42.8 °F42.8 °F100 %30.13 in6.2 miNW (320°)6.9 mphRainRain
12:58 AM42.1 °F40.5 °F94 %30.15 in6.2 miNW (310°)6.9 mph0.06 inRainLight Rain
1:03 AM42.8 °F41.0 °F93 %30.14 in6.2 miNW (310°)5.8 mphRainLight Rain
1:27 AM41.0 °F41.0 °F100 %30.15 in6.2 miNW (320°)5.8 mphRainRain
1:39 AM41.0 °F39.2 °F93 %30.15 in6.2 miNW (320°)3.5 mphRainLight Rain
1:56 AM41.0 °F41.0 °F100 %30.15 in6.2 miNW (310°)2.3 mphRainLight Rain
1:58 AM41.0 °F41.0 °F100 %30.16 in6.2 miNW (310°)2.3 mph0.07 inRainLight Rain
2:11 AM41.0 °F41.0 °F100 %30.15 in6.2 miNW (320°)1.2 mphRainLight Rain
2:58 AM40.6 °F40.6 °F100 %30.18 in6.2 miWNW (290°)6.9 mph0.02 inRainLight Rain
3:58 AM40.6 °F39.7 °F97 %30.17 in6.2 miSouth (170°)4.6 mph0.02 inRainLight Rain
4:04 AM41.0 °F41.0 °F100 %30.16 in6.2 miSSE (160°)4.6 mphClear
4:58 AM39.9 °F39.9 °F100 %30.17 in6.2 miSE (130°)1.2 mph0.00 inMostly Cloudy
5:58 AM39.4 °F39.4 °F100 %30.19 in6.2 miCalmPartly Cloudy
6:58 AM39.4 °F39.4 °F100 %30.21 in6.2 miCalmMostly Cloudy
7:58 AM39.0 °F39.0 °F100 %30.23 in6.2 miSouth (180°)3.5 mphClear
8:58 AM38.3 °F38.3 °F100 %30.25 in6.2 miSouth (190°)4.6 mphMostly Cloudy
9:02 AM39.2 °F39.2 °F100 %30.24 in6.2 miSouth (190°)5.8 mphMostly Cloudy
9:12 AM39.2 °F39.2 °F100 %30.25 in6.2 miSouth (180°)3.5 mphScattered Clouds
9:35 AM39.2 °F39.2 °F100 %30.26 in6.2 miSW (220°)4.6 mphLight Drizzle
9:54 AM37.4 °F37.4 °F100 %30.26 in6.2 miSSW (210°)2.3 mphClear
9:58 AM37.8 °F37.8 °F100 %30.27 in6.2 miSouth (190°)1.2 mph0.00 inClear
10:58 AM40.1 °F40.1 °F100 %30.27 in6.2 miSSW (210°)1.2 mphClear
11:58 AM43.2 °F40.3 °F90 %30.24 in6.2 miSSW (210°)2.3 mph0.00 inClear
12:58 PM44.4 °F39.2 °F82 %30.22 in6.2 miSouth (180°)5.8 mph0.00 inClear
1:58 PM44.4 °F39.0 °F81 %30.19 in6.2 miSE (140°)5.8 mphClear
2:58 PM42.1 °F39.2 °F90 %30.19 in6.2 miSE (140°)4.6 mphClear
3:58 PM37.6 °F37.6 °F100 %30.17 in6.2 miESE (120°)3.5 mphPartly Cloudy
4:58 PM35.4 °F35.4 °F100 %30.17 in6.2 miENE (60°)3.5 mphPartly Cloudy
5:37 PM35.6 °F35.6 °F100 %30.14 in6.2 miENE (60°)5.8 mphLight Drizzle
5:48 PM35.6 °F35.6 °F100 %30.14 in6.2 miENE (70°)3.5 mphMostly Cloudy
5:58 PM34.5 °F34.5 °F100 %30.14 in6.2 miENE (70°)4.6 mph0.00 inMostly Cloudy
6:19 PM35.6 °F35.6 °F100 %30.13 in6.2 miNE (50°)5.8 mphLight Drizzle
6:20 PM35.6 °F35.6 °F100 %30.13 in6.2 miNE (50°)4.6 mphLight Drizzle
6:31 PM35.6 °F35.6 °F100 %30.12 in6.2 miNE (50°)4.6 mphOvercast
6:44 PM35.6 °F35.6 °F100 %30.12 in6.2 miENE (60°)4.6 mphOvercast
6:58 PM36.5 °F36.5 °F100 %30.12 in6.2 miEast (80°)3.5 mphOvercast
7:13 PM39.2 °F39.2 °F100 %30.10 in6.2 miEast (100°)6.9 mphOvercast
7:23 PM39.2 °F39.2 °F100 %30.10 in6.2 miESE (120°)6.9 mphRainLight Rain
7:37 PM41.0 °F41.0 °F100 %30.09 in6.2 miEast (100°)5.8 mphOvercast
7:58 PM39.4 °F39.2 °F99 %30.10 in6.2 miNE (50°)4.6 mph0.00 inOvercast
8:25 PM39.2 °F39.2 °F100 %30.07 in6.2 miENE (60°)3.5 mphOvercast
8:29 PM39.2 °F39.2 °F100 %30.07 in6.2 miNE (50°)3.5 mphOvercast
8:37 PM39.2 °F39.2 °F100 %30.06 in6.2 miENE (60°)4.6 mphOvercast
8:41 PM39.2 °F39.2 °F100 %30.06 in6.2 miENE (60°)4.6 mphLight Drizzle
8:52 PM39.2 °F39.2 °F100 %30.05 in5.6 miNE (50°)5.8 mphDrizzle
8:53 PM39.2 °F39.2 °F100 %30.05 in5.6 miNE (50°)5.8 mphDrizzle
8:58 PM39.9 °F39.9 °F100 %30.06 in5.6 miNE (50°)4.6 mph0.00 inLight Drizzle
8:59 PM39.2 °F39.2 °F100 %30.05 in5.6 miENE (60°)4.6 mphLight Drizzle
9:06 PM39.2 °F39.2 °F100 %30.04 in6.2 miENE (60°)3.5 mphOvercast
9:11 PM39.2 °F39.2 °F100 %30.04 in6.2 miENE (60°)4.6 mphOvercast
9:20 PM41.0 °F41.0 °F100 %30.04 in6.2 miENE (70°)4.6 mphOvercast
9:21 PM41.0 °F41.0 °F100 %30.04 in6.2 miENE (70°)4.6 mphOvercast
9:26 PM41.0 °F41.0 °F100 %30.04 in6.2 miNE (50°)4.6 mphOvercast
9:42 PM41.0 °F41.0 °F100 %30.03 in6.2 miENE (60°)3.5 mphOvercast
9:45 PM41.0 °F41.0 °F100 %30.03 in5.6 miENE (70°)2.3 mphOvercast
9:48 PM41.0 °F41.0 °F100 %30.03 in5.6 miENE (60°)2.3 mphOvercast
9:54 PM41.0 °F41.0 °F100 %30.03 in3.7 miENE (70°)2.3 mphLight Drizzle
9:58 PM40.3 °F40.3 °F100 %30.03 in3.1 miEast (80°)2.3 mph0.00 inDrizzle
10:01 PM41.0 °F41.0 °F100 %30.02 in2.5 miEast (80°)2.3 mphDrizzle
10:09 PM41.0 °F41.0 °F100 %30.02 inENE (60°)2.3 mphOvercast
10:40 PM41.0 °F41.0 °F100 %30.01 inNNW (340°)1.2 mphOvercast
10:43 PM41.0 °F41.0 °F100 %30.00 inCalmOvercast
10:48 PM41.0 °F41.0 °F100 %30.00 inNE (40°)1.2 mphLight Drizzle
10:54 PM41.0 °F41.0 °F100 %30.00 inCalmLight Drizzle
10:58 PM40.8 °F40.8 °F100 %30.01 inENE (70°)1.2 mph0.03 inLight Drizzle
11:03 PM41.0 °F41.0 °F100 %30.00 inEast (90°)1.2 mphLight Drizzle
11:05 PM41.0 °F41.0 °F100 %30.00 in2.5 miEast (90°)2.3 mphLight Drizzle
11:09 PM41.0 °F41.0 °F100 %29.99 in2.5 miESE (110°)3.5 mphOvercast
11:35 PM41.0 °F41.0 °F100 %29.98 in3.1 miCalmOvercast
11:58 PM41.4 °F41.4 °F100 %29.98 in3.7 miESE (110°)1.2 mph0.00 inOvercast
Hourly data recorded from EGUL, located miles away from Kings Lynn, England







STORIES FROM OUR PARTNERS